Home   Weather   Olympia   Past weeks

Flag for USA Past Weather in Olympia, Washington, USA — Yesterday and Last 2 Weeks

Now
35 °F

Passing clouds.


Feels Like: 35 °F
Forecast: 37 / 56 °F
Wind: No wind

Location: Olympia Airport

Current Time: Apr 29, 2017 at 6:36:02 am

Latest Report: Apr 29, 2017 at 6:08 am


Visibility: 10 mi

Pressure: 30.30 "Hg

Humidity: 96%

Dew Point: 34 °F

Location of OlympiaLocation

Past Weather in Olympia — Graph

°F

Olympia Temperature Yesterday

Maximum temperature yesterday: 61 °F (at 3:54 pm)
Minimum temperature yesterday: 33 °F (at 5:54 am)
Average temperature yesterday: 48 °F

High & Low Weather Summary for the Past Weeks

 TemperatureHumidityPressure
High65 °F (Apr 21, 3:54 pm)100% (Apr 15, 12:54 am)30.43 "Hg (Apr 15, 12:54 am)
Low33 °F (Apr 16, 6:54 am)34% (Apr 16, 4:54 pm)29.72 "Hg (Apr 24, 6:54 am)
Average48 °F83%30.03 "Hg
* Reported Apr 14 5:54 am — Apr 29 5:38 am, Olympia, Weather by CustomWeather, © 2017

Note: Actual official high and low records may vary slightly from our data, if they occured in-between our weather recording intervals... More about our weather records

Advertising

Olympia Weather History for the Previous 24 Hours

Scroll right to see more
 ConditionsComfort  
Time TempWeatherWind HumidityBarometerVisibility
5:38 am
Sat, Apr 29
35 °FPassing clouds.No wind100%30.30 "Hg8 mi
5:04 am35 °FClear.No wind100%30.31 "Hg7 mi
4:54 am35 °FFog.No wind100%30.31 "Hg2 mi
3:54 am36 °FClear.No wind100%30.31 "Hg10 mi
2:54 am38 °FClear.No wind97%30.32 "Hg10 mi
1:54 am40 °FClear.No wind97%30.33 "Hg10 mi
12:54 am38 °FClear.No wind97%30.32 "Hg10 mi
11:54 pm
Fri, Apr 28
41 °FClear.3 mph96%30.33 "Hg10 mi
10:54 pm45 °FClear.No wind82%30.33 "Hg10 mi
9:54 pm46 °FClear.3 mph83%30.33 "Hg10 mi
8:54 pm50 °FClear.No wind71%30.32 "Hg10 mi
7:54 pm54 °FPartly sunny.5 mph64%30.32 "Hg10 mi
6:54 pm55 °FPartly sunny.6 mph57%30.32 "Hg10 mi
5:54 pm57 °FPartly sunny.7 mph51%30.32 "Hg10 mi
4:54 pm59 °FPartly sunny.No wind42%30.32 "Hg10 mi
3:54 pm61 °FPartly sunny.No wind41%30.33 "Hg10 mi
2:54 pm57 °FPartly sunny.3 mph44%30.34 "Hg10 mi
1:54 pm57 °FOvercast.No wind46%30.35 "Hg10 mi
12:54 pm56 °FBroken clouds.5 mph49%30.36 "Hg10 mi
11:54 am55 °FBroken clouds.7 mph51%30.37 "Hg10 mi
10:54 am53 °FScattered clouds.3 mph61%30.36 "Hg10 mi
9:54 am49 °FPassing clouds.5 mph71%30.35 "Hg10 mi
8:54 am45 °FPassing clouds.5 mph82%30.35 "Hg10 mi
7:54 am41 °FSunny.5 mph93%30.34 "Hg10 mi
6:54 am35 °FScattered clouds.No wind100%30.32 "Hg10 mi
Weather by CustomWeather, © 2017

See weather overviewHow to use our weather pages